Regional Weather Roundup
Issued by NWS

Home | Current Version | Previous Version | Text Only | Print | Product List | Glossary On
Versions: 1 2 3 4 5 6 7 8 9 10 11 12 13 14 15 16 17 18 19 20 21 22 23 24 25 26 27 28 29 30 31 32 33 34 35 36 37 38 39 40 41 42 43 44 45 46 47 48 49 50
000
ASUS43 KDTX 221210
RWRMI
MICHIGAN HOURLY REGIONAL WEATHER ROUNDUP
NATIONAL WEATHER SERVICE DETROIT/PONTIAC MI
ISSUED BY NATIONAL WEATHER SERVICE GRAND RAPIDS MI
800 AM EDT TUE AUG 22 2017

NOTE: "FAIR" INDICATES FEW OR NO CLOUDS BELOW 12,000 FEET WITH NO
SIGNIFICANT WEATHER AND/OR OBSTRUCTION TO VISIBILITY.

MIZ047>049-052>055-059>063-066>070-074>076-081>083-221300-
SOUTHEAST LOWER MICHIGAN

CITY           SKY/WX    TMP DP  RH WIND       PRES   REMARKS
ADRIAN         LGT RAIN  70  67  90 W10       29.87F
6HR MIN TEMP:  70; 6HR MAX TEMP:  73; 6HR PCP:  0.03;

ALMA           RAIN      70  67  92 SW15G23   29.77F
ANN ARBOR      CLOUDY    73  67  81 MISG      29.83F
BAD AXE        LGT RAIN  73  67  83 SW14G26   29.75F
DETROIT CITY   CLOUDY    74  68  81 SW14G21   29.82F
6HR MIN TEMP:  74; 6HR MAX TEMP:  78; 6HR PCP: TRACE;

DETROIT        CLOUDY    74  69  85 SW14      29.83F
6HR MIN TEMP:  73; 6HR MAX TEMP:  76; 6HR PCP: TRACE;

FLINT          LGT RAIN  72  65  78 SW12      29.79F
6HR MIN TEMP:  72; 6HR MAX TEMP:  74; 6HR PCP: TRACE;

GROSSE ILE     LGT RAIN  72  69  89 SW8       29.82F
6HR MIN TEMP:  72; 6HR MAX TEMP:  76;

HILLSDALE      LGT RAIN  70  64  83 W12G23    29.86F
HOWELL         DRIZZLE   72  65  80 SW17G23   29.82S
6HR MIN TEMP:  70; 6HR MAX TEMP:  73; 6HR PCP:  0.01;


CITY           SKY/WX    TMP DP  RH WIND       PRES   REMARKS
JACKSON        LGT RAIN  70  65  84 SW18      29.85S
6HR MIN TEMP:  70; 6HR MAX TEMP:  73; 6HR PCP:  0.01;

LANSING        LGT RAIN  70  65  84 SW20G29   29.82S
6HR MIN TEMP:  70; 6HR MAX TEMP:  73; 6HR PCP:  0.02;

MASON          RAIN      71  66  84 SW10G17   29.83S
MONROE         CLOUDY    71  69  93 SW8       29.84F
MT. CLEMENS    CLOUDY    76  68  76 SW14      29.79F
6HR MIN TEMP:  75; 6HR MAX TEMP:  77;

PONTIAC        CLOUDY    74  66  76 SW17G24   29.81F
6HR MIN TEMP:  72; 6HR MAX TEMP:  75; 6HR PCP: TRACE;

PORT HOPE        N/A     73  68  84 SW12G17   29.71F
6HR MIN TEMP:  73; 6HR MAX TEMP:  75;

PORT HURON     RAIN      75  68  78 SW5G16    29.79F
TRI CITIES     RAIN      72  70  93 SW17G30   29.76S FOG
6HR MIN TEMP:  72; 6HR MAX TEMP:  75; 6HR PCP:  0.06;

YPSILANTI      CLOUDY    73  70  90 SW10G23   29.84F
6HR MIN TEMP:  73; 6HR MAX TEMP:  76; 6HR PCP:  0.01;

$$
MIZ043>046-050>051-056>058-064>065-071>073-077>080-221300-
SOUTHWEST LOWER MICHIGAN

CITY           SKY/WX    TMP DP  RH WIND       PRES   REMARKS
BATTLE CREEK   RAIN      70  68  93 SW15      29.85F
6HR MIN TEMP:  69; 6HR MAX TEMP:  73; 6HR PCP:  0.16;

BENTON HARBOR  CLOUDY    73  69  87 W15G23    29.85S
6HR MIN TEMP:  70; 6HR MAX TEMP:  77; 6HR PCP:  0.11;

BIG RAPIDS     CLOUDY    69  66  88 W9G17     29.75S
6HR MIN TEMP:  69; 6HR MAX TEMP:  72; 6HR PCP:  1.09;

COLDWATER      DRIZZLE   69  69 100 W15       29.86F
6HR MIN TEMP:  69; 6HR MAX TEMP:  73;

HOLLAND        LGT RAIN  73  70  90 W13G23    29.81S
6HR MIN TEMP:  71; 6HR MAX TEMP:  75; 6HR PCP:  0.24;

GRAND RAPIDS   LGT RAIN  71  70  96 SW14      29.80S
6HR MIN TEMP:  71; 6HR MAX TEMP:  73; 6HR PCP:  0.09;

KALAMAZOO      LGT RAIN  70  67  90 SW10      29.85S FOG
6HR MIN TEMP:  70; 6HR MAX TEMP:  74; 6HR PCP:  0.24;

MARSHALL       LGT RAIN  69  68  98 SW16G28   29.86R
6HR MIN TEMP:  69; 6HR MAX TEMP:  73; 6HR PCP:  0.07;

MOUNT PLEASANT HVY RAIN  72  68  89 SW15      29.74S
6HR MIN TEMP:  72; 6HR MAX TEMP:  75; 6HR PCP:  0.31;

MUSKEGON       CLOUDY    73  69  87 W10       29.78S
6HR MIN TEMP:  73; 6HR MAX TEMP:  76; 6HR PCP: TRACE;

STURGIS        LGT RAIN  68  67  96 W8G17     29.87F
6HR MIN TEMP:  68; 6HR MAX TEMP:  72; 6HR PCP:  0.49;

$$
MIZ016>042-221300-
NORTHERN LOWER MICHIGAN

CITY           SKY/WX    TMP DP  RH WIND       PRES   REMARKS
ALPENA         CLOUDY    71  70  96 SW5       29.66F
6HR MIN TEMP:  69; 6HR MAX TEMP:  73; 6HR PCP: TRACE;

BEAVER ISLAND  CLOUDY    68  66  94 SW12      29.65S
6HR MIN TEMP:  67; 6HR MAX TEMP:  71;

BELLAIRE       CLOUDY    69  66  89 W5        29.69R
6HR MIN TEMP:  69; 6HR MAX TEMP:  71;

CADILLAC       CLOUDY    70  65  84 W9        29.74R
CHARLEVOIX     CLOUDY    68  68 100 SW13      29.69S
GAYLORD        PTSUNNY   67  65  93 W10       29.69F
6HR MIN TEMP:  67; 6HR MAX TEMP:  70; 6HR PCP:  0.03;

HOUGHTON LAKE  CLOUDY    70  68  93 SW9       29.72F
6HR MIN TEMP:  70; 6HR MAX TEMP:  72; 6HR PCP:  0.12;

MANISTEE       CLOUDY    69  66  90 W9        29.73R
OSCODA         LGT RAIN  70  69  95 SW9       29.68F
6HR MIN TEMP:  70; 6HR MAX TEMP:  74; 6HR PCP:  0.27;

PELLSTON       CLOUDY    69  66  90 W13G21    29.65S
6HR MIN TEMP:  68; 6HR MAX TEMP:  72; 6HR PCP:  0.08;

TRAVERSE CITY  PTSUNNY   71  65  81 SW5       29.69S
6HR MIN TEMP:  71; 6HR MAX TEMP:  75; 6HR PCP:  0.01;

LUDINGTON      PTSUNNY   69  65  87 W10       29.76R
6HR MIN TEMP:  69; 6HR MAX TEMP:  73;

$$
MIZ007>008-015-221300-
EASTERN UPPER MICHIGAN

CITY           SKY/WX    TMP DP  RH WIND       PRES   REMARKS
KINROSS        CLOUDY    67  67 100 W9        29.61F
6HR MIN TEMP:  66; 6HR MAX TEMP:  68;

MACKINAC ISLAN CLOUDY    68  68 100 SW10G21   29.63S FOG
6HR MIN TEMP:  68; 6HR MAX TEMP:  70;

NEWBERRY       CLOUDY    64  63  97 W14G20    29.63R
6HR MIN TEMP:  64; 6HR MAX TEMP:  67; 6HR PCP:  0.01;

S. S. MARIE    CLOUDY    69  67  93 W8        29.59F
6HR MIN TEMP:  67; 6HR MAX TEMP:  70; 6HR PCP: TRACE;

$$
MIZ004>006-011>014-085-221300-
CENTRAL UPPER MICHIGAN

CITY           SKY/WX    TMP DP  RH WIND       PRES   REMARKS
MANISTIQUE     CLOUDY    60  54  81 NW13G23   29.68R
6HR MIN TEMP:  60; 6HR MAX TEMP:  68; 6HR PCP:  0.01;

ESCANABA       CLOUDY    63  60  90 NW13G22   29.72R
6HR MIN TEMP:  63; 6HR MAX TEMP:  69; 6HR PCP:  0.26;

MENOMINEE      CLOUDY    67  63  87 N8        29.74R
6HR MIN TEMP:  66; 6HR MAX TEMP:  70;

SAWYER-GWINN   MOCLDY    55  54  94 NW14      29.76R
$$
MIZ001>003-009>011-084-221300-
WESTERN UPPER MICHIGAN

CITY           SKY/WX    TMP DP  RH WIND       PRES   REMARKS
IRON MOUNTAIN  CLOUDY    60  54  80 NW13G23   29.77R
6HR MIN TEMP:  60; 6HR MAX TEMP:  68; 6HR PCP: TRACE;

HOUGHTON       CLOUDY    57  54  89 NW9       29.77R
6HR MIN TEMP:  56; 6HR MAX TEMP:  58; 6HR PCP:  0.04;

COPPER HARBOR    N/A     59  56  89 N10       29.74R
6HR MIN TEMP:  57; 6HR MAX TEMP:  59; 6HR PCP:  0.15;

IRONWOOD       CLOUDY    57  56  96 W9        29.86R
6HR MIN TEMP:  56; 6HR MAX TEMP:  57; 6HR PCP:  0.07;

$$

ABBREVIATIONS USED IN REMARKS
   TC - TEMPERATURE IN CELSIUS
  WCI - WIND CHILL INDEX
   HX - HEAT INDEX
  VSB - VISIBILITY





USA.gov is the U.S. government's official web portal to all federal, state and local government web resources and services.